Location: Beaver Meadows
(40.3729°N, 105.6140°W)
Time: 01:11:32
(UTC-06:00)

Iridium 67 - Visible Passes

Search period start: 30 May 2017 00:00
Search period end: 09 June 2017 00:00
Orbit: 776 x 779 km, 86.4° (Epoch: 29 May)

Date Brightness Start Highest point End Pass type
(mag) Time Alt. Az. Time Alt. Az. Time Alt. Az.
30 May 7.9 01:44:36 10° W 01:45:33 11° WNW 01:46:52 10° WNW visible
30 May 6.0 23:30:34 44° E 23:30:43 44° E 23:35:39 10° NNE visible
31 May 7.3 01:11:01 20° W 01:11:39 20° WNW 01:15:29 10° NNW visible
31 May 6.8 22:56:58 24° E 22:57:25 24° E 23:01:32 10° NNE visible
01 Jun 6.5 00:37:25 36° W 00:37:54 37° W 00:42:42 10° NNW visible
01 Jun 7.5 22:23:22 13° E 22:24:13 13° ENE 22:26:33 10° NE visible
02 Jun 5.5 00:03:49 65° WSW 00:04:16 69° W 00:09:28 10° N visible
02 Jun 5.5 23:30:12 60° ESE 23:30:45 65° E 23:35:55 10° N visible
03 Jun 7.7 01:10:40 13° W 01:11:58 14° WNW 01:14:41 10° NW visible
03 Jun 6.3 22:56:35 33° ESE 22:57:22 35° E 23:02:03 10° NNE visible
04 Jun 7.0 00:37:02 24° W 00:38:07 26° WNW 00:42:26 10° NNW visible
04 Jun 7.1 22:22:57 18° E 22:24:07 19° E 22:27:42 10° NE visible
05 Jun 6.2 00:03:25 41° WSW 00:04:24 47° W 00:09:26 10° N visible
05 Jun 5.4 23:29:46 58° S 23:30:49 87° W 23:36:04 10° N visible
06 Jun 5.8 22:56:07 41° SE 22:57:22 50° E 23:02:23 10° NNE visible
07 Jun 7.6 00:36:34 15° W 00:38:23 18° WNW 00:41:54 10° NNW visible
07 Jun 6.6 22:22:27 23° ESE 22:24:01 27° E 22:28:21 10° NNE visible
08 Jun 6.8 00:02:54 26° WSW 00:04:36 32° W 00:09:16 10° NNW visible
08 Jun 7.3 21:48:46 12° ESE 21:50:48 15° ENE 21:53:40 10° NE visible
08 Jun 5.8 23:29:13 40° SW 23:30:56 60° W 23:36:06 10° N visible
